GW0224 Weather Reports


time (UTC)temp
C
wind
direction
speed
KPH
gust
KPH
rain 1hr
cm
rain 24hr
cm
rain mn
cm
humidity
%
barometer
mb
20260507085510 1 252 0.0 3.2 0.00 0.00 0.00 63 1023.0
20260507085011 1 252 1.6 3.2 0.00 0.00 0.00 62 1022.9
20260507084531 1 252 0.0 4.8 0.00 0.00 0.00 61 1022.7
20260507084012 2 0 1.6 4.8 0.00 0.00 0.00 61 1022.6
20260507083508 2 252 1.6 4.8 0.00 0.00 0.00 60 1022.6
20260507083030 2 258 1.6 3.2 0.00 0.00 0.00 59 1022.6
20260507082510 2 258 1.6 3.2 0.00 0.00 0.00 59 1022.5
20260507082012 2 263 1.6 4.8 0.00 0.00 0.00 61 1022.6
20260507081536 2 263 1.6 4.8 0.00 0.00 0.00 63 1022.6
20260507081011 2 261 1.6 4.8 0.00 0.00 0.00 62 1022.6
20260507080510 2 261 1.6 3.2 0.00 0.00 0.00 61 1022.6
20260507080030 2 261 1.6 3.2 0.00 0.00 0.00 60 1022.7
20260507075510 2 0 0.0 3.2 0.00 0.00 0.00 58 1022.6
20260507075009 2 0 0.0 3.2 0.00 0.00 0.00 58 1022.6
20260507074531 2 0 0.0 4.8 0.00 0.00 0.00 57 1022.7
20260507074009 2 0 0.0 4.8 0.00 0.00 0.00 57 1022.7
20260507073511 2 0 0.0 4.8 0.00 0.00 0.00 57 1022.6
20260507073028 2 261 0.0 4.8 0.00 0.00 0.00 56 1022.5
20260507072510 2 261 1.6 4.8 0.00 0.00 0.00 56 1022.5
20260507072010 2 261 1.6 3.2 0.00 0.00 0.00 55 1022.5
20260507071529 2 261 1.6 3.2 0.00 0.00 0.00 55 1022.6
20260507071010 2 261 1.6 3.2 0.00 0.00 0.00 55 1022.5
20260507070512 2 261 1.6 3.2 0.00 0.00 0.00 55 1022.5
20260507070040 2 261 0.0 3.2 0.00 0.00 0.00 54 1022.5
20260507065510 3 0 0.0 3.2 0.00 0.00 0.00 54 1022.5
20260507065013 3 0 1.6 3.2 0.00 0.00 0.00 54 1022.4
20260507064528 3 261 0.0 4.8 0.00 0.00 0.00 54 1022.3
20260507064008 3 261 1.6 4.8 0.00 0.00 0.00 54 1022.3
20260507063509 3 271 1.6 6.4 0.00 0.00 0.00 54 1022.2
20260507063033 3 275 3.2 6.4 0.00 0.00 0.00 53 1022.3
20260507062510 3 287 3.2 6.4 0.00 0.00 0.00 54 1022.1
20260507062009 3 123 0.0 11.3 0.00 0.00 0.00 53 1022.1
20260507061527 3 0 0.0 11.3 0.00 0.00 0.00 52 1022.1
20260507061015 4 267 3.2 4.8 0.00 0.00 0.00 51 1022.0
20260507060509 4 276 1.6 4.8 0.00 0.00 0.00 50 1021.9
20260507060030 4 0 0.0 4.8 0.00 0.00 0.00 50 1022.0
20260507055511 5 284 0.0 4.8 0.00 0.00 0.00 50 1022.1
20260507055018 5 94 0.0 9.7 0.00 0.00 0.00 50 1022.0
20260507054530 5 0 1.6 9.7 0.00 0.00 0.00 50 1021.9
20260507054010 5 0 0.0 3.2 0.00 0.00 0.00 49 1021.8
20260507053508 5 260 0.0 4.8 0.00 0.00 0.00 48 1021.8
20260507053030 5 260 0.0 4.8 0.00 0.00 0.00 48 1021.9
20260507052510 6 279 3.2 4.8 0.00 0.00 0.00 47 1021.9
20260507052012 6 302 1.6 4.8 0.00 0.00 0.00 45 1021.9
20260507051530 7 0 0.0 6.4 0.00 0.00 0.00 45 1021.9
20260507051008 7 0 1.6 6.4 0.00 0.00 0.00 45 1021.9
20260507050514 7 0 1.6 4.8 0.00 0.00 0.00 43 1021.7
20260507050032 7 250 1.6 4.8 0.00 0.00 0.00 43 1021.6
20260507045511 7 259 1.6 4.8 0.00 0.00 0.00 43 1021.4
20260507045007 7 249 1.6 3.2 0.00 0.00 0.00 43 1021.4
20260507044526 7 0 0.0 0.0 0.00 0.00 0.00 44 1021.4
20260507044012 7 0 0.0 0.0 0.00 0.00 0.00 43 1021.4
20260507043510 8 0 0.0 3.2 0.00 0.00 0.00 44 1021.4
20260507043028 8 0 0.0 3.2 0.00 0.00 0.00 43 1021.4
20260507042508 8 0 0.0 3.2 0.00 0.00 0.00 42 1021.3
20260507042016 8 0 0.0 3.2 0.00 0.00 0.00 42 1021.4
20260507041529 8 0 0.0 3.2 0.00 0.00 0.00 42 1021.3
20260507041008 8 248 1.6 3.2 0.00 0.00 0.00 42 1021.2
20260507040509 8 246 1.6 3.2 0.00 0.00 0.00 42 1021.2
20260507040028 8 0 0.0 3.2 0.00 0.00 0.00 42 1021.2
20260507035508 8 246 0.0 3.2 0.00 0.00 0.00 42 1021.1
20260507035008 8 246 1.6 3.2 0.00 0.00 0.00 42 1021.1
20260507034539 8 246 1.6 4.8 0.00 0.00 0.00 41 1020.9
20260507034010 8 246 0.0 4.8 0.00 0.00 0.00 41 1020.8
20260507033509 8 246 1.6 4.8 0.00 0.00 0.00 41 1020.8
20260507033041 8 246 1.6 3.2 0.00 0.00 0.00 41 1020.8
20260507032512 8 0 0.0 4.8 0.00 0.00 0.00 40 1020.7
20260507032010 9 246 0.0 4.8 0.00 0.00 0.00 40 1020.6
20260507031544 9 0 1.6 4.8 0.00 0.00 0.00 40 1020.5
20260507031012 9 262 0.0 3.2 0.00 0.00 0.00 39 1020.4
20260507030510 10 262 0.0 3.2 0.00 0.00 0.00 39 1020.3
20260507030032 10 262 1.6 3.2 0.00 0.00 0.00 38 1020.1
20260507025508 10 0 0.0 3.2 0.00 0.00 0.00 38 1020.1
20260507025013 10 277 0.0 3.2 0.00 0.00 0.00 37 1020.0
20260507024529 11 0 0.0 3.2 0.00 0.00 0.00 36 1019.9
20260507024011 11 277 0.0 3.2 0.00 0.00 0.00 36 1019.8
20260507023509 11 0 0.0 3.2 0.00 0.00 0.00 35 1019.8
20260507023026 11 250 0.0 4.8 0.00 0.00 0.00 34 1019.7
20260507022510 12 250 0.0 4.8 0.00 0.00 0.00 34 1019.7
20260507022011 12 277 0.0 3.2 0.00 0.00 0.00 33 1019.7
20260507021530 12 0 0.0 4.8 0.00 0.00 0.00 32 1019.6
20260507021010 13 277 1.6 4.8 0.00 0.00 0.00 32 1019.6
20260507020512 13 277 0.0 4.8 0.00 0.00 0.00 31 1019.6
20260507020030 13 0 0.0 4.8 0.00 0.00 0.00 30 1019.5
20260507015514 14 0 0.0 4.8 0.00 0.00 0.00 30 1019.5
20260507015010 14 316 0.0 3.2 0.00 0.00 0.00 30 1019.6
20260507014540 14 248 0.0 4.8 0.00 0.00 0.00 30 1019.6
20260507014010 14 0 0.0 4.8 0.00 0.00 0.00 29 1019.5
20260507013508 15 0 0.0 3.2 0.00 0.00 0.00 29 1019.5
20260507013036 15 0 0.0 4.8 0.00 0.00 0.00 29 1019.4
20260507012510 15 0 0.0 4.8 0.00 0.00 0.00 28 1019.5
20260507012009 15 0 0.0 4.8 0.00 0.00 0.00 28 1019.3
20260507011534 15 0 0.0 6.4 0.00 0.00 0.00 27 1019.3
20260507011010 15 0 1.6 12.9 0.00 0.00 0.00 27 1019.3
20260507010512 15 254 4.8 12.9 0.00 0.00 0.00 27 1019.4
20260507010037 15 38 1.6 9.7 0.00 0.00 0.00 27 1019.2
20260507005513 15 332 3.2 9.7 0.00 0.00 0.00 26 1019.2
20260507005023 15 223 1.6 6.4 0.00 0.00 0.00 26 1019.2
20260507004527 16 5 0.0 14.5 0.00 0.00 0.00 26 1019.2
20260507004010 16 22 3.2 14.5 0.00 0.00 0.00 26 1019.2
20260507003512 16 0 3.2 8.0 0.00 0.00 0.00 26 1019.1
20260507003030 16 0 0.0 12.9 0.00 0.00 0.00 26 1019.1
20260507002513 16 22 3.2 12.9 0.00 0.00 0.00 25 1019.0
20260507002011 16 317 3.2 12.9 0.00 0.00 0.00 25 1019.0
20260507001528 16 260 0.0 12.9 0.00 0.00 0.00 25 1019.0
20260507001010 16 286 3.2 14.5 0.00 0.00 0.00 24 1019.0
20260507000511 16 246 4.8 14.5 0.00 0.00 0.00 25 1019.0
20260507000028 16 26 1.6 16.1 0.00 0.00 0.00 24 1018.8
20260506235511 16 349 3.2 16.1 0.00 0.00 0.00 24 1018.8
20260506235010 16 136 1.6 8.0 0.00 0.00 0.00 24 1018.7
20260506234530 16 225 1.6 16.1 0.00 0.00 0.00 24 1018.7
20260506234012 16 332 1.6 16.1 0.00 0.00 0.00 23 1018.8
20260506233510 16 286 1.6 14.5 0.00 0.00 0.00 23 1018.9
20260506233028 16 5 6.4 14.5 0.00 0.00 0.00 22 1018.9
20260506232508 16 27 4.8 14.5 0.00 0.00 0.00 22 1018.8
20260506232009 17 248 4.8 12.9 0.00 0.00 0.00 23 1018.7
20260506231533 16 257 1.6 14.5 0.00 0.00 0.00 25 1018.7
20260506231007 16 98 3.2 14.5 0.00 0.00 0.00 25 1018.7
20260506230509 16 27 6.4 17.7 0.00 0.00 0.00 25 1018.6
20260506230030 16 335 4.8 17.7 0.00 0.00 0.00 24 1018.6
20260506225513 16 360 6.4 24.1 0.00 0.00 0.00 24 1018.6
20260506225018 16 342 9.7 24.1 0.00 0.00 0.00 23 1018.6
20260506224528 16 43 8.0 17.7 0.00 0.00 0.00 24 1018.7
20260506224010 17 318 3.2 20.9 0.00 0.00 0.00 23 1018.7
20260506223506 17 5 8.0 24.1 0.00 0.00 0.00 24 1018.7
20260506223028 17 292 3.2 24.1 0.00 0.00 0.00 24 1018.6
20260506222509 17 53 6.4 22.5 0.00 0.00 0.00 24 1018.6
20260506222013 17 12 9.7 19.3 0.00 0.00 0.00 23 1018.7
20260506221530 17 360 8.0 17.7 0.00 0.00 0.00 22 1018.7
20260506221015 17 0 8.0 17.7 0.00 0.00 0.00 21 1018.7
20260506220509 18 316 3.2 14.5 0.00 0.00 0.00 21 1018.8
20260506220028 18 303 3.2 17.7 0.00 0.00 0.00 24 1019.1
20260506215510 17 296 3.2 17.7 0.00 0.00 0.00 25 1019.1
20260506215008 17 350 8.0 17.7 0.00 0.00 0.00 25 1018.8
20260506214529 17 205 4.8 16.1 0.00 0.00 0.00 27 1019.0
20260506214007 17 325 9.7 17.7 0.00 0.00 0.00 27 1018.9
20260506213513 17 74 6.4 17.7 0.00 0.00 0.00 24 1019.1
20260506213028 17 10 8.0 17.7 0.00 0.00 0.00 20 1019.1
20260506212507 17 329 4.8 17.7 0.00 0.00 0.00 24 1019.1
20260506212010 17 290 3.2 20.9 0.00 0.00 0.00 26 1019.2
20260506211530 17 338 8.0 25.7 0.00 0.00 0.00 28 1019.2
20260506211011 17 340 6.4 25.7 0.00 0.00 0.00 27 1019.2
20260506210512 17 27 9.7 20.9 0.00 0.00 0.00 27 1019.2
20260506210033 17 0 1.6 17.7 0.00 0.00 0.00 26 1019.1
20260506205511 17 275 4.8 17.7 0.00 0.08 0.00 28 1019.3
20260506205009 17 250 4.8 24.1 0.00 0.08 0.00 28 1019.1
20260506204527 17 60 11.3 24.1 0.00 0.08 0.00 27 1019.1
20260506204011 17 360 4.8 12.9 0.00 0.08 0.00 28 1019.2
20260506203516 17 277 3.2 19.3 0.00 0.08 0.00 27 1019.2
20260506203035 17 0 8.0 19.3 0.00 0.08 0.00 30 1019.3
20260506202510 17 342 3.2 17.7 0.00 0.08 0.00 31 1019.3
20260506202013 17 281 4.8 14.5 0.00 0.08 0.00 29 1019.3
20260506201536 17 40 3.2 17.7 0.00 0.08 0.00 31 1019.3
20260506201010 16 340 6.4 24.1 0.00 0.08 0.00 29 1019.2
20260506200509 16 318 12.9 24.1 0.00 0.08 0.00 30 1019.2
20260506200028 16 234 4.8 14.5 0.00 0.08 0.00 30 1019.2
20260506195510 16 87 6.4 14.5 0.00 0.08 0.00 30 1019.3
20260506195011 16 336 3.2 20.9 0.00 0.08 0.00 33 1019.3
20260506194530 16 5 3.2 20.9 0.00 0.08 0.00 32 1019.3
20260506194008 15 24 6.4 22.5 0.00 0.08 0.00 32 1019.4
20260506193511 16 22 4.8 22.5 0.00 0.08 0.00 30 1019.4
20260506193027 16 30 6.4 22.5 0.00 0.08 0.00 32 1019.4
20260506192510 15 323 6.4 16.1 0.00 0.08 0.00 32 1019.4
20260506192014 16 310 4.8 16.1 0.00 0.08 0.00 31 1019.5
20260506191528 16 0 3.2 16.1 0.00 0.08 0.00 32 1019.4
20260506191010 15 0 3.2 19.3 0.00 0.08 0.00 32 1019.4
20260506190509 15 54 4.8 19.3 0.00 0.08 0.00 31 1019.6
20260506190031 15 5 3.2 16.1 0.00 0.08 0.00 31 1019.7
20260506185510 15 306 3.2 16.1 0.00 0.08 0.00 35 1019.6
20260506185009 15 330 4.8 16.1 0.00 0.08 0.00 34 1019.6
20260506184535 15 32 3.2 12.9 0.00 0.08 0.00 35 1019.7
20260506184013 15 73 3.2 12.9 0.00 0.08 0.00 33 1019.8
20260506183510 15 59 4.8 24.1 0.00 0.08 0.00 34 1019.8
20260506183029 14 27 6.4 24.1 0.00 0.08 0.00 36 1019.8
20260506182511 14 355 11.3 24.1 0.00 0.08 0.00 35 1019.8
20260506182013 14 0 3.2 17.7 0.00 0.08 0.00 36 1019.8
20260506181529 14 233 6.4 17.7 0.00 0.08 0.00 36 1019.8
20260506181011 14 0 3.2 16.1 0.00 0.08 0.00 36 1019.8
20260506180510 13 338 3.2 16.1 0.00 0.08 0.00 38 1019.8
20260506180030 13 343 4.8 16.1 0.00 0.08 0.00 38 1019.7
20260506175509 13 11 6.4 20.9 0.00 0.08 0.00 38 1019.7
20260506175012 13 355 6.4 20.9 0.00 0.08 0.00 37 1019.6
20260506174529 13 44 8.0 17.7 0.00 0.08 0.00 38 1019.8
20260506174009 13 22 6.4 14.5 0.00 0.08 0.00 38 1019.8
20260506173512 13 92 6.4 17.7 0.00 0.08 0.00 37 1019.8
20260506173032 13 22 4.8 17.7 0.00 0.08 0.00 37 1019.8
20260506172507 12 13 4.8 20.9 0.00 0.08 0.00 37 1019.7
20260506172010 12 313 6.4 20.9 0.00 0.08 0.00 37 1019.8
20260506171530 12 38 9.7 20.9 0.00 0.08 0.00 37 1019.6
20260506171008 12 42 4.8 19.3 0.00 0.08 0.00 39 1019.7
20260506170514 12 26 8.0 19.3 0.00 0.08 0.00 38 1019.7
20260506170029 12 49 4.8 16.1 0.00 0.08 0.00 38 1019.6
20260506165511 12 350 6.4 16.1 0.00 0.08 0.00 40 1019.6
20260506165010 12 9 6.4 14.5 0.00 0.08 0.00 38 1019.6
20260506164526 12 15 4.8 16.1 0.00 0.08 0.00 38 1019.7
20260506164011 12 317 4.8 16.1 0.00 0.08 0.00 39 1019.6
20260506163509 11 33 6.4 17.7 0.00 0.08 0.00 39 1019.5
20260506163031 12 306 4.8 17.7 0.00 0.08 0.00 39 1019.6
20260506162506 11 39 8.0 17.7 0.00 0.08 0.00 39 1019.4
20260506162011 11 345 4.8 17.7 0.00 0.08 0.00 38 1019.5
20260506161530 11 5 8.0 17.7 0.00 0.08 0.00 39 1019.3
20260506161010 11 343 4.8 20.9 0.00 0.08 0.00 39 1019.3
20260506160513 11 137 3.2 20.9 0.00 0.08 0.00 40 1019.4
20260506160030 11 360 3.2 16.1 0.00 0.08 0.00 42 1019.3
20260506155510 11 9 4.8 16.1 0.00 0.08 0.00 41 1019.3
20260506155009 11 355 3.2 9.7 0.00 0.08 0.00 41 1019.3
20260506154531 11 280 3.2 8.0 0.00 0.08 0.00 45 1019.4
20260506154018 11 86 1.6 8.0 0.00 0.08 0.00 44 1019.2
20260506153514 10 302 1.6 8.0 0.00 0.08 0.00 45 1019.2
20260506153028 10 178 3.2 9.7 0.00 0.08 0.00 47 1019.2
20260506152508 10 257 3.2 9.7 0.00 0.08 0.00 47 1019.3
20260506152012 10 229 3.2 8.0 0.00 0.08 0.00 47 1019.2
20260506151529 9 238 3.2 8.0 0.00 0.08 0.00 52 1019.2
20260506151008 9 236 3.2 8.0 0.00 0.08 0.00 50 1019.1
20260506150510 8 17 3.2 6.4 0.00 0.08 0.00 53 1019.0
20260506150028 8 305 1.6 6.4 0.00 0.08 0.00 56 1018.9
20260506145511 7 198 1.6 9.7 0.00 0.08 0.00 61 1018.8
20260506145009 6 355 3.2 9.7 0.00 0.08 0.00 62 1018.8
20260506144534 6 65 3.2 4.8 0.00 0.08 0.00 67 1018.8
20260506144011 5 101 1.6 4.8 0.00 0.08 0.00 70 1018.8
20260506143508 5 102 1.6 3.2 0.00 0.08 0.00 73 1018.8
20260506143027 4 0 1.6 4.8 0.00 0.08 0.00 74 1018.8
20260506142514 3 0 1.6 4.8 0.00 0.08 0.00 78 1018.9
20260506142010 2 0 0.0 0.0 0.00 0.08 0.00 79 1018.8
20260506141531 2 0 0.0 0.0 0.00 0.08 0.00 82 1018.9
20260506141018 1 0 0.0 0.0 0.00 0.08 0.00 85 1018.9
20260506140511 1 0 0.0 0.0 0.00 0.08 0.00 87 1018.8
20260506140028 0 0 0.0 0.0 0.00 0.08 0.00 87 1018.7
20260506135513 0 0 0.0 0.0 0.00 0.08 0.00 87 1018.6
20260506135010 0 0 0.0 0.0 0.00 0.08 0.00 87 1018.5
20260506134527 -1 0 0.0 0.0 0.00 0.08 0.00 87 1018.5
20260506134011 -1 0 0.0 0.0 0.00 0.08 0.00 88 1018.4
20260506133516 -1 0 0.0 0.0 0.00 0.08 0.00 88 1018.5
20260506133030 -2 0 0.0 0.0 0.00 0.08 0.00 89 1018.4
20260506132513 -2 0 0.0 0.0 0.00 0.08 0.00 89 1018.3
20260506132011 -2 0 0.0 0.0 0.00 0.08 0.00 89 1018.3
20260506131531 -2 0 0.0 0.0 0.00 0.08 0.00 89 1018.3
20260506131011 -3 0 0.0 0.0 0.00 0.08 0.00 89 1018.1
20260506130507 -3 0 0.0 0.0 0.00 0.08 0.00 89 1018.1
20260506130028 -3 0 0.0 0.0 0.00 0.08 0.00 89 1018.1
20260506125510 -3 0 0.0 0.0 0.00 0.08 0.00 88 1018.0
20260506125010 -3 0 0.0 0.0 0.00 0.08 0.00 88 1018.0
20260506124527 -3 0 0.0 0.0 0.00 0.08 0.00 88 1017.9
20260506124010 -3 0 0.0 0.0 0.00 0.08 0.00 88 1017.8
20260506123507 -3 0 0.0 0.0 0.00 0.08 0.00 88 1017.8
20260506123028 -3 0 0.0 0.0 0.00 0.08 0.00 88 1017.8
20260506122507 -3 0 0.0 0.0 0.00 0.08 0.00 88 1017.6
20260506122010 -3 0 0.0 0.0 0.00 0.08 0.00 88 1017.6
20260506121528 -3 0 0.0 0.0 0.00 0.08 0.00 88 1017.6
20260506121011 -3 0 0.0 0.0 0.00 0.08 0.00 88 1017.5
20260506120508 -3 0 0.0 0.0 0.00 0.08 0.00 87 1017.5
20260506120029 -3 0 0.0 0.0 0.00 0.08 0.00 87 1017.6
20260506115519 -3 0 0.0 0.0 0.00 0.08 0.00 87 1017.5
20260506115009 -3 0 0.0 0.0 0.00 0.08 0.00 87 1017.4
20260506114533 -3 0 0.0 0.0 0.00 0.08 0.00 87 1017.6
20260506114012 -3 0 0.0 0.0 0.00 0.08 0.00 87 1017.4
20260506113510 -3 0 0.0 0.0 0.00 0.08 0.00 87 1017.4
20260506113030 -3 0 0.0 0.0 0.00 0.08 0.00 87 1017.5
20260506112510 -3 0 0.0 0.0 0.00 0.08 0.00 87 1017.5
20260506112009 -3 0 0.0 0.0 0.00 0.08 0.00 87 1017.3
20260506111529 -3 0 0.0 0.0 0.00 0.08 0.00 87 1017.4
20260506111009 -3 0 0.0 0.0 0.00 0.08 0.00 87 1017.3
20260506110507 -3 0 0.0 0.0 0.00 0.08 0.00 87 1017.3
20260506110028 -3 0 0.0 0.0 0.00 0.08 0.00 87 1017.2
20260506105507 -3 0 0.0 0.0 0.00 0.08 0.00 86 1017.2
20260506105009 -3 0 0.0 0.0 0.00 0.08 0.00 86 1017.3
20260506104528 -3 0 0.0 0.0 0.00 0.08 0.00 86 1017.1
20260506104009 -3 0 0.0 1.6 0.00 0.08 0.00 86 1017.1
20260506103559 -3 0 0.0 3.2 0.00 0.08 0.00 86 1017.1
20260506103033 -3 0 0.0 3.2 0.00 0.08 0.00 86 1016.8
20260506102510 -3 0 1.6 3.2 0.00 0.08 0.00 85 1016.8
20260506102012 -3 236 1.6 3.2 0.00 0.08 0.00 85 1016.8
20260506101610 -3 236 1.6 3.2 0.00 0.08 0.00 85 1016.8
20260506101010 -3 0 0.0 1.6 0.00 0.08 0.00 85 1016.8
20260506100509 -3 0 0.0 1.6 0.00 0.08 0.00 85 1016.8
20260506100027 -3 0 0.0 3.2 0.00 0.08 0.00 85 1016.7
20260506095507 -3 236 0.0 3.2 0.00 0.08 0.00 84 1016.7
20260506095013 -3 236 0.0 3.2 0.00 0.08 0.00 84 1016.7
20260506094528 -3 0 0.0 1.6 0.00 0.08 0.00 84 1016.7
20260506094017 -3 0 0.0 1.6 0.00 0.08 0.00 84 1016.8
20260506093514 -2 0 0.0 0.0 0.00 0.08 0.00 83 1016.5
20260506093038 -2 0 0.0 3.2 0.00 0.08 0.00 83 1016.6
20260506092510 -2 0 0.0 4.8 0.00 0.08 0.00 83 1016.7
20260506092013 -2 236 1.6 4.8 0.00 0.08 0.00 83 1016.6
20260506091529 -2 236 1.6 3.2 0.00 0.08 0.00 83 1016.7
20260506091007 -2 236 0.0 3.2 0.00 0.08 0.00 83 1016.6
20260506090530 -2 0 0.0 3.2 0.00 0.08 0.00 83 1016.6
20260506090028 -2 0 0.0 3.2 0.00 0.08 0.00 83 1016.6